Theta_e
309 309 309 309 309 309 309 309 309 309 309 310 310 310 310 310 310 310 310 309 309 309 308 308 306 309 321 328 334 337 335 335 334 336 336 335 335 333 332 329 325 325 324
309 309 310 310 310 310 310 310 309 309 309 309 309 309 309 309 310 310 310 309 309 309 309 309 308 307 307 315 328 330 338 332 334 334 335 333 335 335 334 333 332 330 327
309 310 311 312 313 313 312 312 311 311 310 309 309 309 309 309 309 310 310 310 309 310 310 309 309 308 307 306 310 326 328 334 330 333 334 332 332 333 333 333 332 333 332
310 310 312 313 312 312 312 311 311 310 309 309 309 308 308 308 309 309 309 309 310 311 311 310 309 309 308 307 306 309 322 328 330 333 331 333 333 332 331 331 331 331 332
309 310 310 310 312 312 312 311 310 309 308 307 307 307 307 308 309 309 310 311 311 311 312 311 309 309 309 307 306 306 308 318 327 328 330 330 330 330 331 329 329 328 328
310 310 308 309 311 311 311 310 310 309 306 306 306 305 306 308 309 310 310 310 311 310 310 311 309 309 309 309 307 307 306 308 316 324 326 326 328 330 327 329 328 329 328
310 310 307 307 307 309 310 309 308 307 305 306 306 306 306 308 309 310 310 310 309 309 309 311 310 310 309 309 308 308 309 307 307 312 321 325 325 325 326 327 327 328 327
311 308 305 303 303 304 305 305 305 305 306 308 308 307 308 309 311 311 310 309 309 309 309 310 310 310 309 309 309 307 309 311 310 309 310 313 319 320 321 321 323 325 325
309 306 304 302 301 300 301 303 305 304 304 307 309 309 310 311 310 309 309 309 309 310 310 309 310 309 309 309 309 307 308 310 311 313 314 314 314 314 315 316 318 320 322
308 306 304 301 299 299 299 305 306 305 305 308 310 311 312 311 309 310 310 311 310 310 310 311 310 310 309 309 308 307 307 309 310 310 312 313 313 314 314 314 316 319 322
308 307 303 301 299 298 300 307 308 308 308 310 312 312 311 312 311 312 313 311 310 308 308 310 310 310 310 308 308 308 307 310 310 310 311 312 315 315 316 316 316 317 322
308 307 303 301 299 298 300 309 310 310 310 312 313 312 313 312 312 313 313 313 313 311 308 308 309 309 309 308 308 310 311 312 313 313 313 313 312 312 313 314 315 316 317
308 306 303 301 299 298 299 309 310 311 312 313 314 315 314 313 314 314 314 314 314 314 312 309 307 308 308 308 308 309 310 310 311 310 310 309 308 307 306 306 309 312 312
307 306 303 301 299 298 298 307 309 310 311 312 313 314 314 314 313 314 315 315 315 315 314 313 310 308 307 307 307 307 307 307 306 306 305 305 305 306 308 309 309 307 311
307 306 304 301 299 298 298 299 309 309 310 310 311 311 311 312 312 313 314 313 314 314 313 314 314 314 313 313 312 311 310 310 309 309 309 310 312 312 313 313 311 312 311
308 307 304 301 299 298 298 298 300 309 309 310 310 310 310 310 310 311 312 312 312 312 312 312 312 312 312 312 312 312 311 311 311 311 311 310 310 312 312 312 314 315 315
308 308 305 302 300 299 298 298 298 300 307 309 310 310 309 308 307 308 310 310 310 310 311 311 311 311 311 311 311 311 311 311 311 311 311 311 311 311 312 313 313 314 315
308 307 305 302 300 299 299 298 298 298 298 301 304 304 304 304 307 309 309 309 309 309 309 309 309 309 309 309 310 311 311 311 311 311 311 311 312 312 312 312 312 312 313
306 306 304 302 301 300 299 299 298 298 298 298 298 299 300 301 303 305 307 308 307 308 308 308 308 307 307 308 310 310 309 310 309 310 309 309 309 309 309 310 311 311 311
305 305 304 303 302 301 300 300 299 298 298 297 297 297 298 298 299 300 302 304 304 304 304 304 305 306 307 308 308 309 309 308 308 307 307 307 306 306 307 307 306 305 305
305 304 304 303 302 302 301 300 300 299 299 298 298 297 297 297 297 298 298 299 300 300 300 300 300 300 301 304 304 306 306 306 306 305 305 304 304 303 304 304 303 302 301
305 304 304 303 303 302 302 301 300 300 300 299 298 298 297 297 297 297 297 297 297 297 298 298 297 297 296 296 296 297 297 297 296 295 294 293 293 292 292 293 293 293 293
304 306 305 304 304 303 302 302 301 300 300 300 300 299 298 297 297 297 296 296 296 296 296 296 296 295 294 294 294 294 293 293 293 293 292 292 291 291 291 291 290 290 290
301 303 304 306 305 304 303 302 302 301 301 300 300 300 300 299 298 297 296 296 296 295 295 295 295 294 294 293 293 293 292 292 292 291 291 291 291 291 290 290 289 289 289
300 300 300 303 305 305 305 304 303 302 302 301 301 301 301 300 300 299 297 296 296 295 295 294 294 294 294 293 293 292 292 292 292 292 291 291 290 290 290 289 289 288 287
300 299 300 300 302 304 305 305 304 303 303 302 302 302 301 301 301 301 300 298 297 296 295 295 294 293 293 293 292 292 292 291 291 291 291 290 290 290 289 289 288 287 286
Wind_Speed
8 9 11 14 18 21 25 26 29 29 30 31 33 35 37 36 35 33 32 30 27 28 31 34 37 37 35 34 27 31 30 31 31 35 35 34 33 32 31 31 32 33 32
13 15 18 20 22 24 27 31 34 35 37 39 40 41 42 42 41 39 36 35 34 32 31 32 33 37 38 37 36 30 32 33 31 30 31 25 32 35 34 33 34 36 34
20 22 22 20 19 21 24 25 27 32 36 38 41 43 46 47 47 45 44 40 37 35 33 32 32 32 35 39 38 36 32 32 33 33 28 11 13 23 29 35 34 35 36
20 19 17 18 21 24 24 27 29 28 28 30 33 36 39 42 42 43 43 39 36 35 33 32 32 33 34 36 39 39 37 35 30 31 34 35 34 21 21 23 23 23 27
16 15 16 19 22 23 26 30 32 31 29 26 28 28 31 32 32 33 33 31 31 34 31 29 30 31 32 34 35 37 40 38 35 37 28 36 33 36 38 28 26 27 21
15 14 16 19 20 22 24 24 26 28 28 26 25 28 26 25 26 24 26 29 29 29 28 26 27 28 29 32 32 32 37 40 40 35 34 39 28 28 34 37 34 38 38
15 15 18 20 21 22 24 25 25 26 26 25 24 24 24 23 22 24 26 27 27 26 23 22 23 26 28 29 31 29 29 34 37 39 36 33 34 34 31 27 31 31 32
13 15 18 20 22 23 23 25 26 27 25 23 22 19 16 18 18 19 21 24 24 22 19 19 19 22 24 25 28 30 25 26 28 32 35 36 34 31 30 30 31 30 29
13 16 18 19 21 22 24 25 28 25 23 18 16 13 8 11 16 19 17 20 21 20 18 17 20 22 22 21 22 28 27 21 23 24 24 25 28 31 32 32 32 32 30
16 17 17 18 19 22 24 26 25 22 18 13 8 8 8 10 10 12 15 17 17 16 15 15 15 16 16 16 18 21 25 24 24 22 21 23 26 27 29 30 30 30 34
20 17 15 15 18 20 22 25 25 22 17 11 9 9 8 8 10 11 13 12 12 11 11 12 13 13 15 14 16 16 18 19 19 20 22 23 24 24 26 28 30 30 30
19 14 13 15 17 19 20 23 23 20 15 12 9 9 7 9 11 10 11 11 10 10 9 7 8 9 12 14 14 13 14 15 15 16 18 20 20 22 23 24 24 26 28
13 12 12 14 15 17 18 19 20 18 14 13 9 7 9 11 10 10 10 9 9 8 7 7 5 6 8 12 14 15 15 18 21 23 25 26 26 28 28 28 29 30 30
10 11 11 12 13 15 17 16 15 14 13 11 11 12 13 14 15 14 12 11 10 8 6 6 5 5 5 8 12 16 18 21 22 23 24 25 26 27 28 28 29 31 32
11 11 11 11 12 13 14 13 12 13 13 14 12 12 12 12 12 12 11 10 10 10 9 8 7 7 8 10 11 13 15 17 18 20 22 24 24 24 25 28 30 31 32
13 11 11 11 11 12 13 13 12 13 13 14 14 14 12 10 9 9 10 10 10 9 10 10 9 8 9 11 11 13 14 15 17 19 19 21 25 27 27 26 28 32 35
16 14 11 10 10 10 12 12 12 12 12 14 16 17 17 17 17 14 11 11 10 10 11 11 10 10 11 11 13 14 16 17 19 20 20 20 20 21 23 24 25 26 27
15 13 11 10 10 9 10 11 11 11 11 11 12 13 14 16 15 15 15 16 16 15 13 11 10 11 12 14 14 12 11 12 13 14 15 16 16 16 16 17 17 16 15
11 11 10 10 10 9 10 10 10 10 11 11 12 12 13 13 13 13 14 14 14 15 15 15 14 13 13 14 12 10 11 11 10 11 12 14 15 15 16 15 15 15 15
8 9 11 11 10 10 10 10 10 10 11 11 11 11 11 11 11 12 11 12 12 12 12 13 13 14 14 14 13 12 11 10 10 11 12 12 10 10 11 9 8 8 7
11 11 13 13 12 13 14 13 12 12 12 12 11 11 12 11 11 11 11 11 12 12 12 12 11 10 11 13 12 10 8 6 7 8 9 9 8 9 10 9 8 8 9
14 15 16 16 14 16 17 15 13 13 13 12 12 12 12 12 12 12 12 12 12 12 11 11 11 11 10 10 10 9 9 9 9 9 8 8 8 9 9 8 8 8 9
17 16 18 19 18 18 19 19 13 15 16 15 14 14 13 13 12 12 12 11 11 11 11 11 11 11 11 10 10 9 8 7 7 7 7 8 8 8 8 8 7 7 7
20 19 21 22 21 17 19 19 16 17 19 18 16 16 15 14 14 13 13 13 12 12 12 12 12 12 11 11 11 10 10 9 8 8 7 7 8 9 11 11 12 12 13
19 22 24 25 25 20 19 19 17 19 21 19 18 18 17 17 16 15 15 15 14 13 13 13 13 13 12 12 11 10 9 9 8 8 9 9 8 8 8 9 9 10 10
28 26 24 25 24 23 23 20 19 22 21 20 19 18 19 19 18 18 18 17 16 16 14 14 14 13 13 12 12 11 11 10 10 10 9 9 9 10 10 10 10 11 11
Wind_Direction
335 320 306 298 297 294 289 283 280 275 272 270 269 269 271 271 270 270 273 277 282 275 269 265 259 255 253 250 258 263 268 272 273 276 266 261 256 254 256 255 255 256 258
324 320 316 312 305 300 290 282 278 274 272 272 272 273 275 274 274 274 274 274 277 277 269 264 261 258 255 252 249 251 256 263 267 268 276 263 263 255 256 258 262 263 261
328 326 324 327 330 328 324 316 305 292 282 276 275 273 273 273 273 273 275 277 277 277 271 264 262 257 254 253 250 246 250 254 261 264 256 252 246 269 264 261 258 265 267
327 327 333 331 335 334 333 330 324 314 301 293 287 283 278 277 276 276 275 276 277 279 276 266 260 258 252 251 250 247 246 248 256 256 251 262 259 256 270 265 262 266 266
326 327 329 335 341 333 333 332 329 327 322 306 297 289 283 283 283 279 277 278 283 281 279 266 258 258 256 250 250 249 245 245 251 252 266 254 258 260 258 266 262 264 267
320 320 329 336 333 331 323 327 328 323 320 312 303 291 286 283 283 284 285 289 288 286 278 268 255 257 256 251 249 250 248 245 246 251 253 260 264 253 261 265 270 275 272
311 318 332 329 330 331 330 329 330 327 324 318 306 297 279 276 288 290 290 290 291 291 287 268 256 255 258 256 248 248 252 249 248 248 252 258 259 261 266 267 262 266 273
303 318 326 326 332 332 328 330 331 329 324 322 314 304 285 281 292 298 296 295 293 294 288 270 255 256 258 256 253 245 251 250 253 253 253 256 260 263 265 269 270 275 267
311 320 324 332 331 329 338 337 334 331 327 324 321 311 298 305 311 298 293 294 295 295 283 271 264 261 258 250 247 242 244 253 254 258 259 260 262 265 268 270 265 265 268
318 319 322 325 331 340 341 344 349 346 339 337 338 331 319 300 288 300 304 300 294 282 277 273 264 252 243 243 238 242 241 248 252 255 263 265 266 267 268 269 268 265 262
315 307 312 324 334 347 348 359 5 0 0 7 359 351 339 325 314 310 317 319 318 312 292 274 265 250 232 229 234 243 241 247 253 251 258 261 263 265 266 266 266 263 260
308 297 310 324 338 352 1 6 13 10 12 17 17 3 3 349 339 323 319 317 326 328 324 304 278 266 248 235 233 238 230 238 245 250 256 260 263 265 268 270 272 270 268
296 295 309 326 341 353 9 13 18 22 16 17 13 6 352 346 336 327 328 316 315 318 322 319 311 281 257 245 251 256 255 257 261 265 268 271 271 271 272 271 270 270 271
291 300 312 323 342 355 8 17 17 21 23 13 3 356 348 344 346 351 341 327 331 324 318 312 298 284 268 259 258 262 266 269 271 274 274 274 272 273 274 274 272 270 268
295 291 306 319 338 359 4 12 15 12 16 15 10 3 351 344 341 339 346 347 339 337 334 321 306 296 285 277 273 273 275 276 278 280 280 275 271 269 271 275 277 275 272
288 293 298 318 333 353 3 4 7 10 11 7 7 2 359 353 346 337 339 337 334 342 338 334 328 314 298 293 287 284 284 285 285 284 283 282 275 272 275 274 274 275 271
286 294 295 305 324 343 356 358 359 1 2 0 1 2 7 13 15 13 12 6 358 343 332 330 328 326 320 309 304 301 299 297 294 289 285 280 282 284 282 278 276 278 272
280 287 285 298 312 332 346 349 352 351 350 348 348 350 0 7 11 15 17 18 18 15 13 1 339 328 323 313 310 308 306 313 317 308 298 292 290 291 294 299 296 285 269
277 276 277 289 302 315 327 335 340 340 341 342 343 345 349 358 2 2 4 7 10 10 12 12 10 8 2 353 341 318 325 335 331 326 311 303 297 293 289 282 275 271 285
282 274 277 283 290 297 304 311 320 329 331 337 341 342 341 343 346 347 347 349 350 353 358 360 358 0 0 0 358 352 341 339 340 333 329 328 312 318 313 293 277 276 282
292 280 281 287 288 289 293 300 308 318 321 326 328 330 332 336 335 334 335 335 334 335 336 338 341 343 342 336 342 344 342 349 341 338 342 343 337 329 325 325 319 323 324
290 284 281 286 286 281 285 292 297 298 306 308 311 314 319 323 328 331 330 328 325 322 322 323 327 331 331 331 328 328 328 332 334 335 344 349 349 350 352 344 337 328 317
284 283 283 283 281 281 283 287 300 291 292 295 301 306 311 313 316 319 318 315 314 313 313 313 314 315 318 322 324 335 332 334 332 335 340 346 348 352 355 355 351 343 335
281 277 272 272 274 275 276 281 284 281 282 286 292 296 300 302 306 307 307 306 306 304 303 302 303 303 305 309 314 320 324 328 331 333 337 340 342 342 344 345 343 341 338
287 276 271 268 267 265 264 269 272 271 273 279 283 286 290 295 298 299 298 297 297 296 296 297 294 294 294 295 296 298 303 306 308 310 314 318 322 325 327 327 327 325 324
286 279 274 270 269 266 263 262 262 263 266 270 274 279 279 282 286 287 287 289 291 290 290 287 285 282 281 281 280 281 283 285 288 291 297 303 309 313 317 321 323 321 319